Regional Weather Roundup
Issued by NWS Cleveland, OH

Home | Current Version | Previous Version | Graphics & Text | Print | Product List | Glossary On
Versions: 1 2 3 4 5 6 7 8 9 10 11 12 13 14 15 16 17 18 19 20 21 22 23 24 25 26 27 28 29 30 31 32 33 34 35 36 37 38 39 40 41 42 43 44 45 46 47 48 49 50
000
ASUS41 KCLE 291802
RWRCLE
OHIO REGIONAL WEATHER ROUNDUP
NATIONAL WEATHER SERVICE CLEVELAND, OH
200 PM EDT WED MAR 29 2017

NOTE: "FAIR" INDICATES FEW OR NO CLOUDS BELOW 12,000 FEET WITH NO
SIGNIFICANT WEATHER AND/OR OBSTRUCTIONS TO VISIBILITY.

OHZ001>008-015>018-024>027-034-035-043-044-291900-
   NORTHWEST OHIO

CITY           SKY/WX    TMP DP  RH WIND       PRES   REMARKS
DEFIANCE       SUNNY     52  35  52 NE13G21   30.25F
FINDLAY        SUNNY     55  36  48 NE13      30.22F
TOLEDO EXPRESS SUNNY     54  32  43 E14       30.26F
TOLEDO EXEC    SUNNY     51  33  50 E9G20     30.28S
LIMA           SUNNY     52  42  69 NE15      30.22F
$$

OHZ009>014-019>023-028>033-038-089-291900-
   NORTHEAST OHIO

CITY           SKY/WX    TMP DP  RH WIND       PRES   REMARKS
CLE-HOPKINS    MOSUNNY   52  36  54 N9        30.27S
CLE-LAKEFRONT  HAZE      43  38  82 N7        30.26R VSB 3/4
CUY CO. ARPT   MOSUNNY   52  37  58 N14       30.23F
LORAIN-ELYRIA  SUNNY     52  31  44 NE13G28   30.24F
ASHTABULA      SUNNY     52  31  44 NE10      30.23F
AKRON-CANTON   MOSUNNY   54  36  50 E9        30.20F
WOOSTER        SUNNY     53  37  54 NE7       30.22S
MANSFIELD      MOSUNNY   52  39  61 NE8       30.22S
YOUNGSTOWN     MOSUNNY   55  34  45 NE12      30.21F
$$

OHZ042-051>053-060>062-070>072-077>081-291900-
  SOUTHWEST OHIO

CITY           SKY/WX    TMP DP  RH WIND       PRES   REMARKS
CINC-COVINGTON MOSUNNY   53  42  66 VRB3      30.18S
CINC-LUNKEN    CLOUDY    53  45  74 N5        30.20S
HAMILTON       CLOUDY    52  44  74 E7        30.21F
DAYTON         MOSUNNY   57  40  52 E10       30.19F
WRIGHT-PAT AFB NOT AVBL
DAYTON GENERAL MOSUNNY   55  43  63 E9        30.17F
WILMINGTON     CLOUDY    48  42  80 NE10      30.19S
$$

OHZ036-037-039>041-045>050-054>059-063>069-073>076-082>088-291900-
  CENTRAL AND SOUTHEAST OHIO

CITY           SKY/WX    TMP DP  RH WIND       PRES   REMARKS
COLUMBUS       MOSUNNY   59  39  47 NE5       30.19S
OSU AIRPORT    SUNNY     56  39  53 NE8       30.20R
BOLTON FIELD   SUNNY     55  39  54 E7        30.21R
RICKENBACK AFB SUNNY     55  41  59 E9        30.20R
NEWARK         SUNNY     57  37  47 NE10G17   30.18F
MARION         SUNNY     53  40  61 NE12      30.23R
LANCASTER      SUNNY     58  41  53 E7        30.19F
ZANESVILLE     SUNNY     58  37  45 VRB3      30.17F
NEW PHILLY     NOT AVBL
$$




USA.gov is the U.S. government's official web portal to all federal, state and local government web resources and services.